EA2DUR Weather Reports


time (UTC)temp
C
wind
direction
speed
KPH
gust
KPH
rain 1hr
cm
rain 24hr
cm
rain mn
cm
humidity
%
barometer
mb
20260504040041 10 40 3.2 6.4 0.00 0.00 0.00 97 945.1
20260504034553 10 28 3.2 8.0 0.00 0.00 0.00 96 945.1
20260504033039 10 19 4.8 12.9 0.00 0.00 0.00 96 945.1
20260504031534 10 355 4.8 9.7 0.00 0.00 0.00 96 945.4
20260504030042 10 350 4.8 14.5 0.00 0.00 0.00 96 945.3
20260504024532 10 67 6.4 9.7 0.00 0.00 0.00 96 945.5
20260504023033 10 24 11.3 17.7 0.00 0.00 0.00 97 945.5
20260504021529 10 59 11.3 17.7 0.00 0.00 0.00 97 945.5
20260504020028 10 42 9.7 14.5 0.00 0.00 0.00 97 945.3
20260504014536 10 36 4.8 12.9 0.00 0.00 0.00 97 945.4
20260504013026 10 17 9.7 17.7 0.00 0.00 0.00 97 945.3
20260504011525 10 360 4.8 11.3 0.00 0.00 0.00 97 945.4
20260504010028 10 336 6.4 12.9 0.00 0.00 0.00 97 945.4
20260504004524 10 18 6.4 14.5 0.00 0.00 0.00 97 945.1
20260504003030 10 355 8.0 16.1 0.00 0.00 0.00 97 945.2
20260504001521 10 42 6.4 19.3 0.00 0.00 0.00 97 945.3
20260504000018 10 47 9.7 12.9 0.00 0.00 0.00 97 945.4
20260503234530 10 12 8.0 12.9 0.00 0.00 0.00 97 945.6
20260503233015 10 33 9.7 16.1 0.00 0.00 0.00 97 945.5
20260503231514 10 50 8.0 16.1 0.00 0.00 0.00 97 945.6
20260503230012 10 40 8.0 16.1 0.00 0.00 0.00 97 945.5
20260503224508 11 45 9.7 16.1 0.00 0.00 0.00 97 945.6
20260503223006 11 84 3.2 11.3 0.00 0.00 0.00 98 945.4
20260503221504 11 30 4.8 9.7 0.00 0.00 0.00 97 945.4
20260503220101 11 57 3.2 4.8 0.00 0.00 0.00 98 945.3
20260503214601 11 113 1.6 3.2 0.00 0.00 0.00 97 945.0
20260503213109 11 113 0.0 3.2 0.00 0.00 0.00 97 945.0
20260503211559 11 287 1.6 4.8 0.00 0.00 0.00 97 944.9
20260503210109 11 76 0.0 1.6 0.00 0.00 0.00 97 944.9
20260503204608 11 76 0.0 1.6 0.00 0.00 0.00 96 944.6
20260503203103 11 76 0.0 4.8 0.00 0.00 0.00 96 944.4
20260503201558 11 45 3.2 6.4 0.00 0.00 0.00 96 944.4
20260503200058 11 54 4.8 8.0 0.00 0.00 0.00 96 944.4
20260503194553 11 59 4.8 8.0 0.00 0.00 0.00 96 944.4
20260503193056 11 82 3.2 4.8 0.00 0.00 0.00 96 944.4
20260503191608 11 42 3.2 8.0 0.00 0.00 0.00 95 944.0
20260503190051 12 46 3.2 4.8 0.00 0.00 0.00 95 943.9
20260503184558 12 355 4.8 9.7 0.00 0.00 0.00 95 943.6
20260503183110 11 212 3.2 8.0 0.00 0.00 0.00 95 943.3
20260503181550 12 127 1.6 4.8 0.00 0.00 0.00 95 943.3
20260503180049 12 180 3.2 12.9 0.00 0.00 0.00 95 943.8
20260503174548 12 294 11.3 14.5 0.00 0.00 0.00 95 943.6
20260503173112 12 140 9.7 17.7 0.00 0.00 0.00 94 943.6
20260503171549 12 124 9.7 17.7 0.00 0.00 0.00 94 943.8
20260503081500 13 231 3.2 8.0 0.00 0.00 0.00 89 946.3
20260503071551 12 184 3.2 9.7 0.00 0.00 0.00 94 946.3
20260503070103 12 196 1.6 6.4 0.00 0.00 0.00 94 946.4
20260503054545 11 223 1.6 6.4 0.00 0.00 0.00 96 946.1
20260503053042 11 248 1.6 4.8 0.00 0.00 0.00 95 945.9
20260503051540 11 265 3.2 6.4 0.00 0.00 0.00 95 945.9
20260503050038 11 176 1.6 6.4 0.00 0.00 0.00 95 945.8
20260503044537 11 232 4.8 6.4 0.00 0.00 0.00 95 945.9
20260503043041 11 242 1.6 9.7 0.00 0.00 0.00 95 945.9
20260503041536 11 212 1.6 4.8 0.00 0.00 0.00 94 945.8